This is the latest recevied weather packets stored in our database for station/object SR9NLI. If no packets are shown the sender has not sent any weather packets the latest 1 day(s).
| Time | Temp. | Humidity | Pressure | Rain* | Wind** | Luminosity | Snow |
|---|---|---|---|---|---|---|---|
| 1778022262 | 15° C | 100% | 948.5 hPa | - | 1.79 m/s, 286° | - | - |
| 1778022195 | 15° C | 100% | 948.5 hPa | - | 2.24 m/s, 192° | - | - |
| 1778022133 | 15.56° C | 100% | 948.6 hPa | - | 2.68 m/s, 181° | - | - |
| 1778022011 | 16.67° C | 100% | 948.4 hPa | - | 2.24 m/s, 176° | - | - |
| 1778021887 | 16.11° C | 100% | 948.5 hPa | - | 1.79 m/s, 217° | - | - |
| 1778021826 | 16.11° C | 100% | 948.4 hPa | - | 2.24 m/s, 246° | - | - |
| 1778021764 | 15.56° C | 100% | 948.4 hPa | - | 2.24 m/s, 258° | - | - |
| 1778021640 | 15.56° C | 100% | 948.5 hPa | - | 2.24 m/s, 262° | - | - |
| 1778021517 | 15.56° C | 100% | 948.6 hPa | - | 1.34 m/s, 166° | - | - |
| 1778021457 | 15.56° C | 100% | 948.6 hPa | - | 0.89 m/s, 163° | - | - |
| 1778021395 | 15.56° C | 100% | 948.5 hPa | - | 0.89 m/s, 187° | - | - |
| 1778021272 | 15.56° C | 100% | 948.5 hPa | - | 0.89 m/s, 173° | - | - |
| 1778021149 | 15° C | 100% | 948.6 hPa | - | 1.34 m/s, 271° | - | - |
| 1778021088 | 15° C | 100% | 948.5 hPa | - | 1.34 m/s, 292° | - | - |
| 1778021025 | 15° C | 100% | 948.5 hPa | - | 1.79 m/s, 309° | - | - |
| 1778020902 | 13.89° C | 100% | 948.5 hPa | - | 1.79 m/s, 341° | - | - |
| 1778020779 | 13.89° C | 100% | 948.6 hPa | - | 1.79 m/s, 343° | - | - |
| 1778020718 | 13.89° C | 100% | 948.5 hPa | - | 1.79 m/s, 345° | - | - |
| 1778020656 | 13.89° C | 100% | 948.6 hPa | - | 2.24 m/s, 351° | - | - |
| 1778020532 | 13.89° C | 100% | 948.7 hPa | - | 2.24 m/s, 352° | - | - |
| 1778020409 | 13.89° C | 100% | 948.6 hPa | - | 1.79 m/s, 342° | - | - |
| 1778020349 | 13.89° C | 100% | 948.6 hPa | - | 1.34 m/s, 330° | - | - |
| 1778020287 | 13.89° C | 100% | 948.7 hPa | - | 0.89 m/s, 332° | - | - |
| 1778020164 | 13.89° C | 100% | 948.6 hPa | - | 0.89 m/s, 354° | - | - |
| 1778020042 | 13.89° C | 100% | 948.5 hPa | - | 0.89 m/s, 4° | - | - |
* Rain since midnight (hover to see other rain measurements)
** Current wind speed in m/s (hover to see current wind gust speed)